Location: Dappach
(48.9767°N, 9.6998°E)
Time: 20:20:11
(UTC+00:00)

SL-16 R/B - Pass Details

Date: 23 May 2024
Orbit: 985 x 1007 km, 99.7° (Epoch: 24 June)

Event Time Altitude Azimuth Distance (km) Brightness Sun altitude
Rises 01:47:36 0° 161° (SSE) 3,720 5.2 -12.8°
Reaches altitude 10° 01:50:04 10° 162° (SSE) 2,776 4.5 -12.6°
Maximum altitude 01:56:21 89° 255° (WSW) 1,015 2.6 -12.0°
Drops below altitude 10° 02:02:39 10° 344° (NNW) 2,794 5.4 -11.3°
Sets 02:05:09 0° 344° (NNW) 3,747 6.1 -11.1°
